Regional Weather Roundup
Issued by NWS

Home | Current Version | Previous Version | Graphics & Text | Print | Product List | Glossary On
Versions: 1 2 3 4 5 6 7 8 9 10 11 12 13 14 15 16 17 18 19 20 21 22 23 24 25 26 27 28 29 30 31 32 33 34 35 36 37 38 39 40 41 42 43 44 45 46 47 48 49 50
000
ASUS45 KABQ 232101
RWRNM
NEW MEXICO REGIONAL WEATHER ROUNDUP
NATIONAL WEATHER SERVICE ALBUQUERQUE NM
300 PM MDT TUE MAY 23 2017

NOTE: "FAIR" MEANS FEW OR NO CLOUDS BELOW 12,000 FEET AGL WITH NO
       SIGNIFICANT WEATHER OR OBSTRUCTIONS TO VISION.

      THIS PRODUCT IS RELEASED AS TWO VERSIONS.  ONE VERSION NEAR
      THE TOP OF THE HOUR CONTAINING PRELIMINARY DATA FROM ALBUQUERQUE
      AND OTHER STATIONS.  A FINAL VERSION WITH ADDITIONAL DATA IS
      ISSUED ABOUT 10 MINUTES AFTER THE HOUR.

NMZ501-503-504-510>518-232200-
NORTHWEST PLATEAU/NORTHCENTRAL MOUNTAINS

CITY           SKY/WX    TMP DP  RH WIND       PRES   REMARKS
FARMINGTON     FAIR      74  34  23 NW28G40   30.07F
LOS ALAMOS     CLOUDY    60  34  38 SE10      30.16F
SANTA FE       PTSUNNY   64  35  34 VRB6      30.12F
TAOS           FAIR      61  23  23 SW3       30.15F
ANGEL FIRE     FAIR      56  24  29 NW14G22   30.19F

$$
NMZ402-403-502-505>509-232200-
WESTCENTRAL MOUNTAINS/SOUTHWEST MOUNTAINS

CITY           SKY/WX    TMP DP  RH WIND       PRES   REMARKS
GALLUP         FAIR      73  28  18 N12G25    30.18F
GRANTS         FAIR      74  15  11 NW21G33   30.17F
SILVER CITY    FAIR      86  17   7 NW18G30   30.05F

$$
NMZ407-409-411-412-232200-
SOUTHERN DESERTS

CITY           SKY/WX    TMP DP  RH WIND       PRES   REMARKS
DEMING         FAIR      91  15   6 W13G36    29.97F
LAS CRUCES     FAIR      88  26  10 SE10      29.99F
HOLLOMAN AFB   FAIR      83  35  18 SE14G21   30.03F
ALAMOGORDO     FAIR      81  39  22 S21G28    30.01F
T OR C         FAIR      83  30  14 S10       30.00F

$$
NMZ519>523-232200-
CENTRAL VALLEYS/CENTRAL HIGHLANDS

CITY           SKY/WX    TMP DP  RH WIND       PRES   REMARKS
ALBUQUERQUE    PTSUNNY   73  32  22 W3        30.06F
DOUBLE EAGLE   MOSUNNY   72  37  28 NE6G23    30.08F
MORIARTY ARPT  FAIR      65  36  34 NW5       30.15F
CLINES CORNERS PTSUNNY   59  32  36 S7        30.18F
BELEN          FAIR      75  32  20 CALM      30.05F
SOCORRO        FAIR      77  33  20 E8        30.04F

$$
NMZ524>526-539-540-232200-
SOUTHCENTRAL MOUNTAINS

CITY           SKY/WX    TMP DP  RH WIND       PRES   REMARKS
RUIDOSO        NOT AVBL

$$
NMZ527>531-232200-
NORTHEAST HIGHLANDS/NORTHEAST PLAINS

CITY           SKY/WX    TMP DP  RH WIND       PRES   REMARKS
LAS VEGAS      FAIR      59  36  42 S13G23    30.17F
RATON          FAIR      58  29  33 NE14G28   30.12F
CLAYTON        CLOUDY    57  34  41 N21       30.13R

$$
NMZ532>537-232200-
EASTCENTRAL PLAINS

CITY           SKY/WX    TMP DP  RH WIND       PRES   REMARKS
SANTA ROSA     CLOUDY    62  36  37 E6        30.13F
TUCUMCARI      FAIR      69  35  28 N8G22     30.07F
CANNON AFB     PTSUNNY   65  37  36 N13       30.12F
CLOVIS AIRPORT PTSUNNY   64  36  34 N9G25     30.11F

$$
NMZ028-029-538-232200-
SOUTHEAST PLAINS

CITY           SKY/WX    TMP DP  RH WIND       PRES   REMARKS
ROSWELL        FAIR      70  33  25 NE13G26   30.12F
ARTESIA        FAIR      68  39  34 NE10G20   30.13F
CARLSBAD       FAIR      70  42  36 N9G17     30.10F
HOBBS          MOSUNNY   64  36  34 N15G24    30.13F


$$




USA.gov is the U.S. government's official web portal to all federal, state and local government web resources and services.